Weather History for KGLH - December, 2014

Change the Weather History Date:

Tuesday, December 9, 2014

  Actual Average Record
Temperature  
Mean Temperature 48 °F 46 °F  
Max Temperature 61 °F 56 °F 82 °F (1943)
Min Temperature 34 °F 37 °F 14 °F (1937)
Degree Days  
Heating Degree Days 17 19  
Month to date heating degree days 127 163  
Since 1 July heating degree days 667 625  
Cooling Degree Days 0 0  
Month to date cooling degree days 0 0  
Year to date cooling degree days 2177 2186  
Moisture  
Dew Point 38 °F    
Average Humidity 73    
Maximum Humidity 100    
Minimum Humidity 46    
Precipitation  
Precipitation 0.00 in 0.20 in 2.96 in (1966)
Month to date precipitation 1.29 1.83  
Year to date precipitation 50.21 48.85  
Sea Level Pressure  
Sea Level Pressure 30.29 in    
Wind  
Wind Speed 9 mph (NW)    
Max Wind Speed 21 mph    
Max Gust Speed 25 mph    
Visibility 4 miles    
Events Fog    
T = Trace of Precipitation, MM = Missing Value Source: NWS Daily Summary

Daily Weather History Graph

Daily Weather History Graph

Search for Another Location

Airport or City:

Trip Planner

Search our weather history database for the weather conditions in past years. The results will help you decide how hot, cold, wet, or windy it might be!

Date:

Astronomy

Dec. 09, 2014 Rise Set
Actual Time 6:56 AM CST 4:56 PM CST
Civil Twilight 6:29 AM CST 5:23 PM CST
Nautical Twilight 5:58 AM CST 5:54 PM CST
Astronomical Twilight 5:27 AM CST 6:24 PM CST
Moon 8:09 PM CST (12/9) 9:14 AM CST (12/9)
Length of Visible Light 10h 54m
Length of Day
9h 59m
Waning Gibbous, 90% of the Moon is Illuminated
Dec 9
Waning Gibbous
Dec 14
Last Quarter
Dec 21
New
Dec 28
First Quarter
Jan 4
Full

Hourly Weather History & Observations

Time (CST) Temp. Windchill Dew Point Humidity Pressure Visibility Wind Dir Wind Speed Gust Speed Precip Events Conditions
12:23 AM 39.9 °F - 39.0 °F 97% 30.26 in 1.0 mi Calm Calm - N/A   Clear
12:29 AM 41.0 °F - 39.0 °F 93% 30.26 in 3.0 mi Calm Calm - N/A   Clear
12:53 AM 41.0 °F 39.0 °F 39.0 °F 93% 30.28 in 1.8 mi NW 3.5 mph - N/A   Clear
1:01 AM 39.9 °F 37.8 °F 37.9 °F 93% 30.26 in 3.0 mi NW 3.5 mph - N/A   Clear
1:53 AM 43.0 °F 40.3 °F 39.9 °F 89% 30.29 in 5.0 mi NW 4.6 mph - N/A   Clear
2:53 AM 42.1 °F 39.2 °F 39.9 °F 92% 30.29 in 5.0 mi NW 4.6 mph - N/A   Clear
3:53 AM 39.9 °F 36.7 °F 37.9 °F 93% 30.28 in 3.0 mi NW 4.6 mph - N/A   Clear
4:14 AM 39.9 °F 37.8 °F 37.9 °F 93% 30.26 in 1.8 mi NW 3.5 mph - N/A   Clear
4:27 AM 37.9 °F 35.5 °F 37.0 °F 97% 30.25 in 3.0 mi NW 3.5 mph - N/A   Clear
4:41 AM 37.0 °F 34.5 °F 35.1 °F 93% 30.26 in 1.8 mi NW 3.5 mph - N/A   Clear
4:53 AM 37.0 °F 34.5 °F 35.1 °F 93% 30.29 in 0.5 mi WNW 3.5 mph - N/A Fog Fog
5:01 AM 37.9 °F 35.5 °F 37.0 °F 97% 30.26 in 0.2 mi WNW 3.5 mph - N/A Fog Fog
5:10 AM 39.0 °F - 37.9 °F 96% 30.26 in 0.8 mi Calm Calm - N/A   Clear
5:20 AM 39.9 °F 37.8 °F 39.0 °F 97% 30.26 in 1.2 mi West 3.5 mph - N/A   Clear
5:34 AM 37.9 °F 35.5 °F 37.9 °F 100% 30.26 in 0.5 mi West 3.5 mph - N/A Fog Fog
5:43 AM 37.0 °F - 36.0 °F 96% 30.26 in 0.2 mi Calm Calm - N/A Fog Fog
5:53 AM 37.9 °F - 36.0 °F 93% 30.29 in 0.2 mi Calm Calm - N/A Fog Fog
6:53 AM 34.0 °F 28.8 °F 33.1 °F 96% 30.30 in 0.2 mi West 5.8 mph - N/A Fog Fog
7:41 AM 37.0 °F 33.3 °F 37.0 °F 100% 30.27 in 0.8 mi West 4.6 mph - N/A   Mist
7:44 AM 37.0 °F 33.3 °F 37.0 °F 100% 30.27 in 1.0 mi West 4.6 mph - N/A   Clear
7:53 AM 39.9 °F - 37.9 °F 93% 30.31 in 1.2 mi Calm Calm - N/A   Clear
8:13 AM 43.0 °F 38.8 °F 42.1 °F 97% 30.28 in 2.0 mi West 6.9 mph - N/A   Clear
8:29 AM 44.1 °F 40.1 °F 42.1 °F 93% 30.28 in 3.0 mi West 6.9 mph - N/A   Clear
8:53 AM 46.0 °F 43.1 °F 43.0 °F 89% 30.32 in 3.0 mi West 5.8 mph - N/A   Clear
9:53 AM 52.0 °F - 46.0 °F 80% 30.32 in 5.0 mi WNW 9.2 mph - N/A   Haze
10:53 AM 55.9 °F - 46.0 °F 69% 30.31 in 6.0 mi NW 6.9 mph - N/A   Haze
11:53 AM 59.0 °F - 45.0 °F 60% 30.29 in 8.0 mi NW 12.7 mph - N/A   Clear
12:53 PM 60.1 °F - 42.1 °F 51% 30.27 in 9.0 mi NNW 10.4 mph - N/A   Clear
1:53 PM 61.0 °F - 39.9 °F 46% 30.26 in 10.0 mi NNW 15.0 mph - N/A   Clear
2:53 PM 55.9 °F - 42.1 °F 60% 30.28 in 10.0 mi NNE 18.4 mph - N/A   Clear
3:53 PM 52.0 °F - 39.9 °F 63% 30.30 in 10.0 mi North 13.8 mph - N/A   Clear
4:53 PM 46.9 °F - 39.0 °F 74% 30.30 in 8.0 mi North 15.0 mph - N/A   Clear
5:53 PM 45.0 °F 38.9 °F 37.0 °F 74% 30.32 in 8.0 mi North 12.7 mph - N/A   Clear
6:53 PM 44.1 °F 36.8 °F 36.0 °F 73% 30.33 in 8.0 mi North 16.1 mph - N/A   Clear
7:20 PM 43.0 °F 36.8 °F 36.0 °F 76% 30.32 in 8.0 mi NNE 11.5 mph - N/A   Mostly Cloudy
7:42 PM 42.1 °F 35.7 °F 35.1 °F 76% 30.32 in 8.0 mi NNE 11.5 mph - N/A   Partly Cloudy
7:53 PM 41.0 °F 34.7 °F 34.0 °F 76% 30.35 in 8.0 mi NNE 10.4 mph - N/A   Partly Cloudy
8:53 PM 39.9 °F 33.4 °F 34.0 °F 79% 30.35 in 9.0 mi NNE 10.4 mph - N/A   Clear
9:53 PM 39.0 °F 32.3 °F 33.1 °F 79% 30.35 in 10.0 mi NNE 10.4 mph - N/A   Clear
10:53 PM 37.9 °F 32.7 °F 32.0 °F 79% 30.36 in 9.0 mi NNE 6.9 mph - N/A   Clear
11:53 PM 36.0 °F 29.6 °F 32.0 °F 86% 30.35 in 9.0 mi NNE 8.1 mph - N/A   Clear